星链-3958 (STARLINK-3958 )

导读

STARLINK-3958是美国太空探索技术公司(SpaceX)星链卫星互联网项目的一员,于2022年5月13日发射升空。星链旨在构建全球卫星互联网星座,该卫星入轨后承担低轨通信传输任务,助力提升全球偏远地区等场景的网络覆盖能力,是星链大规模组网进程中的组成卫星。

基本信息
目录编号:
52535
目录名称:
STARLINK-3958
国际标识:
2022-051C
轨道中心:
EARTH
卫星名称:
星链-3958
卫星全名:
星链-3958 (STARLINK-3958 )
卫星状态:
在轨 (已飞行1496 天)
发射日期:
2022-05-13 UTC
国别 :
美国 (US)
星等 :
--
轨道信息
数据来源 国际轨道数据 AOE轨道数据
星历时间 2026-06-17T06:30:18+0800
15小时前
查看轨道信息
2026-06-14T23:00:00+0800
2天前
查看轨道信息
半长轴 6917.884km 6917.894km
偏心率 0.0001311 0.0001125
轨道倾角 53.160° 53.161°
近地点辐角 91.777° 110.256°
升交点赤经 43.485° 53.884°
平近点角 268.337° 280.777°
近地点 538.84km 538.978km
远地点 540.654km 540.536km
周期 95.438分钟 95.438分钟
每日圈数 15.08839 15.088357
详细信息
固有亮度:
5
最大亮度:
2.5
卫星平台:
Starlink v1.5
覆盖范围:
全球
运营商:
太空探索技术公司
运营商所在国:
美国
制造商(研发单位):
太空探索技术公司
制造商所在国:
美国
使用方式:
暂无
卫星简介
星链(Starlink)计划是由太空探索技术公司(SpaceX)提出的一个巨型低轨卫星互联网星座项目,计划在2019年至2024年间在太空搭建由约1.2万颗卫星组成的“星链”网络,其中1584颗将部署在地球上空550千米处的近地轨道,并从2020年开始工作。该卫星仍在工作。
2D轨道图
3D轨道图
轨道高度分析图
轨道倾角分析图
轨道综合分析图
查看轨道综合分析图